Location: Unspecified
(33.6682°S, 0.0000°E)
Time: 20:28:27
(UTC+00:00)

Tiros 1 despin weight - Pass Details

Date: 19 June 2019
Orbit: 594 x 642 km, 48.2° (Epoch: 18 July)

Event Time Altitude Azimuth Distance (km) Brightness Sun altitude
Rises 19:31:02 0° 243° (WSW) 2,959 ? -30.8°
Reaches altitude 10° 19:33:38 10° 254° (WSW) 2,038 ? -31.3°
Enters shadow 19:37:32 28° 310° (NW) 1,197 ? -32.1°
Maximum altitude 19:37:38 28° 312° (NW) 1,196 - -32.1°
Drops below altitude 10° 19:41:34 10° 11° (N) 1,997 - -32.9°
Sets 19:44:06 0° 22° (NNE) 2,888 - -33.5°
